{"data":{"norad_id":68454,"epoch":"2026-05-24T20:06:45.588096Z","epoch_age_seconds":96006,"freshness":"FRESH","line1":"1 68454U 26067AQ  26144.83802764  .00006324  00000+0  31912-3 0  9996","line2":"2 68454  97.4558 103.5994 0006729 131.2753 228.9061 15.17446812  8391","mean_motion":15.17446812,"eccentricity":0.0006729,"inclination_deg":97.4558,"raan_deg":103.5994,"arg_perigee_deg":131.2753,"mean_anomaly_deg":228.9061,"bstar":0.00031912,"rev_number":839,"period_min":94.896242070065,"perigee_km":508.92280838585,"apogee_km":518.19765451994,"semimajor_km":6891.6972314529,"source":"CELESTRAK","updated_at":"2026-05-25T13:38:07.843427Z"}}